Weather History for LGAV - May, 2013

Change the Weather History Date:

Monday, May 13, 2013

  Actual Average (LGEL) Record (LGEL)
Temperature  
Mean Temperature 63 °F -  
Max Temperature 73 °F 77 °F 93 °F (2007)
Min Temperature 53 °F 58 °F 51 °F (2008)
Degree Days  
Heating Degree Days 2    
Growing Degree Days 13 (Base 50)    
Moisture  
Dew Point 52 °F    
Average Humidity 67    
Maximum Humidity 88    
Minimum Humidity 38    
Precipitation  
Precipitation 0.00 in - - ()
Sea Level Pressure  
Sea Level Pressure 29.69 in    
Wind  
Wind Speed 4 mph ()    
Max Wind Speed 14 mph    
Max Gust Speed 17 mph    
Visibility 6.1 miles    
Events Rain    
Averages and records for this station are not official NWS values.
T = Trace of Precipitation, MM = Missing Value Source: Averaged Metar Reports

Daily Weather History Graph

Daily Weather History Graph

Search for Another Location

Airport or City:

Trip Planner

Search our weather history database for the weather conditions in past years. The results will help you decide how hot, cold, wet, or windy it might be!

Date:

Astronomy

May. 13, 2013 Rise Set
Actual Time 6:15 AM EEST 8:25 PM EEST
Civil Twilight 5:46 AM EEST 8:55 PM EEST
Nautical Twilight 5:10 AM EEST 9:31 PM EEST
Astronomical Twilight 4:31 AM EEST 10:10 PM EEST
Moon 8:45 AM EEST (5/13) 11:22 PM EEST (5/13)
Length of Visible Light 15h 08m
Length of Day
14h 10m
Waxing Crescent, 10% of the Moon is Illuminated
May 13
Waxing Crescent
May 18
First Quarter
May 25
Full
May 31
Last Quarter
Jun 8
New

Hourly Weather History & Observations

Time (EEST) Temp. Dew Point Humidity Pressure Visibility Wind Dir Wind Speed Gust Speed Precip Events Conditions
12:20 AM 69.8 °F 46.4 °F 43% 29.68 in 6.2 mi West 8.1 mph - N/A   Partly Cloudy
12:50 AM 69.8 °F 44.6 °F 40% 29.68 in 6.2 mi WNW 4.6 mph - N/A   Partly Cloudy
1:20 AM 64.4 °F 50.0 °F 59% 29.68 in 6.2 mi North 5.8 mph - N/A   Partly Cloudy
1:50 AM 64.4 °F 50.0 °F 59% 29.68 in 6.2 mi North 5.8 mph - N/A   Scattered Clouds
2:20 AM 62.6 °F 51.8 °F 68% 29.68 in 6.2 mi NE 5.8 mph - N/A   Scattered Clouds
2:50 AM 60.8 °F 51.8 °F 72% 29.68 in 6.2 mi NNW 4.6 mph - N/A   Partly Cloudy
3:20 AM 60.8 °F 50.0 °F 68% 29.68 in 6.2 mi North 2.3 mph - N/A   Partly Cloudy
3:50 AM 59.0 °F 50.0 °F 72% 29.68 in 6.2 mi ESE 2.3 mph - N/A   Partly Cloudy
4:20 AM 60.8 °F 51.8 °F 72% 29.68 in 6.2 mi East 2.3 mph - N/A   Partly Cloudy
4:50 AM 57.2 °F 50.0 °F 77% 29.68 in 6.2 mi NE 2.3 mph - N/A   Partly Cloudy
5:20 AM 55.4 °F 50.0 °F 82% 29.68 in 6.2 mi Variable 1.2 mph - N/A   Partly Cloudy
5:50 AM 53.6 °F 48.2 °F 82% 29.68 in 6.2 mi West 5.8 mph - N/A   Partly Cloudy
6:20 AM 55.4 °F 48.2 °F 77% 29.68 in 6.2 mi Variable 3.5 mph - N/A   Partly Cloudy
6:50 AM 53.6 °F 48.2 °F 82% 29.68 in 6.2 mi West 2.3 mph - N/A   Partly Cloudy
7:20 AM 62.6 °F 50.0 °F 63% 29.68 in 6.2 mi Calm Calm - N/A   Scattered Clouds
7:50 AM 64.4 °F 50.0 °F 59% 29.68 in 6.2 mi Variable 1.2 mph - N/A   Scattered Clouds
8:20 AM 68.0 °F 50.0 °F 52% 29.68 in 6.2 mi Calm Calm - N/A   Scattered Clouds
8:50 AM 68.0 °F 50.0 °F 52% 29.71 in 6.2 mi Variable 1.2 mph - N/A   Scattered Clouds
9:20 AM 69.8 °F 48.2 °F 46% 29.71 in 6.2 mi NW 5.8 mph - N/A   Scattered Clouds
9:50 AM 69.8 °F 48.2 °F 46% 29.71 in 6.2 mi WNW 6.9 mph - N/A   Scattered Clouds
10:20 AM 71.6 °F 48.2 °F 43% 29.71 in 6.2 mi WNW 6.9 mph - N/A   Mostly Cloudy
10:50 AM 68.0 °F 53.6 °F 60% 29.71 in 6.2 mi North 5.8 mph - N/A   Mostly Cloudy
11:20 AM 69.8 °F 53.6 °F 56% 29.71 in 6.2 mi NNW 5.8 mph - N/A   Mostly Cloudy
11:50 AM 71.6 °F 51.8 °F 50% 29.71 in 6.2 mi Variable 3.5 mph - N/A   Mostly Cloudy
12:20 PM 73.4 °F 46.4 °F 38% 29.71 in 6.2 mi West 8.1 mph - N/A   Mostly Cloudy
12:50 PM 71.6 °F 48.2 °F 43% 29.71 in 6.2 mi West 8.1 mph - N/A   Mostly Cloudy
1:20 PM 73.4 °F 46.4 °F 38% 29.68 in 6.2 mi WNW 6.9 mph - N/A   Mostly Cloudy
1:50 PM 71.6 °F 50.0 °F 46% 29.71 in 6.2 mi WNW 13.8 mph - N/A Rain Light Rain
2:20 PM 68.0 °F 53.6 °F 60% 29.68 in 6.2 mi ESE 8.1 mph - N/A Rain Light Rain
2:50 PM 64.4 °F 55.4 °F 73% 29.68 in 6.2 mi ESE 10.4 mph - N/A Rain Light Rain
3:20 PM 66.2 °F 57.2 °F 73% 29.68 in 6.2 mi SE 8.1 mph - N/A   Mostly Cloudy
3:50 PM 66.2 °F 55.4 °F 68% 29.68 in 6.2 mi ESE 6.9 mph - N/A   Mostly Cloudy
4:20 PM 64.4 °F 57.2 °F 77% 29.68 in 6.2 mi ENE 8.1 mph - N/A Rain Light Rain
4:50 PM 62.6 °F 57.2 °F 82% 29.68 in 3.7 mi ENE 5.8 mph 17.3 mph N/A Rain Rain
5:20 PM 60.8 °F 57.2 °F 88% 29.68 in 6.2 mi Variable 2.3 mph - N/A Rain Light Rain
5:50 PM 62.6 °F 57.2 °F 82% 29.68 in 6.2 mi Variable 1.2 mph - N/A Rain Light Rain
6:20 PM 62.6 °F 59.0 °F 88% 29.68 in 6.2 mi Variable 2.3 mph - N/A   Mostly Cloudy
6:50 PM 64.4 °F 59.0 °F 83% 29.68 in 6.2 mi Calm Calm - N/A   Mostly Cloudy
7:20 PM 64.4 °F 59.0 °F 83% 29.68 in 6.2 mi Variable 2.3 mph - N/A   Mostly Cloudy
7:50 PM 64.4 °F 59.0 °F 83% 29.68 in 6.2 mi Variable 2.3 mph - N/A   Mostly Cloudy
8:20 PM 62.6 °F 59.0 °F 88% 29.68 in 6.2 mi ENE 5.8 mph - N/A   Mostly Cloudy
8:50 PM 62.6 °F 57.2 °F 82% 29.68 in 6.2 mi East 4.6 mph - N/A   Mostly Cloudy
9:20 PM 60.8 °F 55.4 °F 82% 29.71 in 6.2 mi NE 9.2 mph - N/A Rain Light Rain
9:50 PM 60.8 °F 55.4 °F 82% 29.71 in 6.2 mi ESE 4.6 mph - N/A   Mostly Cloudy
10:20 PM 60.8 °F 53.6 °F 77% 29.71 in 6.2 mi NW 4.6 mph - N/A Rain Light Rain
11:50 PM 59.0 °F 53.6 °F 82% 29.71 in 6.2 mi Variable 2.3 mph - N/A   Mostly Cloudy